SYN002 ESGG-EKCH

Flight info

Callsign SYN002
Flight time 0h 38m
Altitude 19000
Route TOPLA L996 ERNOV
Aircraft BCS3/M-SBDE2E3GIRWXY/LB1

Departure

Time 2026-05-04 19:20
Airport Göteborg Landvetter Airport (ESGG)

Arrival

Time 2026-05-04 19:58
Airport Copenhagen Kastrup Airport (EKCH)
Time Latitude Longitude Altitude Speed Heading
2026-05-04 18:56 57.66890 12.29407 511 ft 0 kts 117°
2026-05-04 19:08 57.66893 12.29398 511 ft 3 kts 109°
2026-05-04 19:09 57.66895 12.29361 511 ft 3 kts 76°
2026-05-04 19:09 57.66887 12.29328 511 ft 3 kts 44°
2026-05-04 19:09 57.66876 12.29312 511 ft 0 kts 33°
2026-05-04 19:10 57.66876 12.29313 511 ft 1 kts 33°
2026-05-04 19:10 57.66883 12.29321 511 ft 0 kts 33°
2026-05-04 19:12 57.66884 12.29322 511 ft 1 kts 30°
2026-05-04 19:12 57.66964 12.29330 512 ft 8 kts 319°
2026-05-04 19:12 57.66997 12.29243 512 ft 9 kts 304°
2026-05-04 19:13 57.67051 12.29205 512 ft 9 kts
2026-05-04 19:13 57.67110 12.29249 513 ft 10 kts 27°
2026-05-04 19:13 57.67174 12.29308 514 ft 11 kts 26°
2026-05-04 19:13 57.67244 12.29371 514 ft 12 kts 25°
2026-05-04 19:14 57.67321 12.29438 515 ft 13 kts 25°
2026-05-04 19:14 57.67387 12.29474 516 ft 6 kts 353°
2026-05-04 19:14 57.67408 12.29451 516 ft 3 kts 317°
2026-05-04 19:14 57.67427 12.29401 516 ft 6 kts 303°
2026-05-04 19:15 57.67448 12.29322 516 ft 8 kts 295°
2026-05-04 19:15 57.67460 12.29214 515 ft 10 kts 264°
2026-05-04 19:15 57.67439 12.29076 514 ft 12 kts 240°
2026-05-04 19:15 57.67390 12.28989 514 ft 4 kts 210°
2026-05-04 19:16 57.67373 12.28971 514 ft 0 kts 208°
2026-05-04 19:19 57.67366 12.28964 514 ft 3 kts 208°
2026-05-04 19:19 57.67219 12.28827 515 ft 59 kts 203°
2026-05-04 19:19 57.66606 12.28274 519 ft 133 kts 207°
2026-05-04 19:20 57.65753 12.27602 1369 ft 136 kts 207°
2026-05-04 19:20 57.64854 12.26896 2246 ft 143 kts 214°
2026-05-04 19:20 57.63941 12.26026 3179 ft 154 kts 216°
2026-05-04 19:20 57.62946 12.25043 4041 ft 168 kts 215°
2026-05-04 19:21 57.61864 12.23984 4903 ft 185 kts 214°
2026-05-04 19:21 57.60572 12.23193 5778 ft 209 kts 194°
2026-05-04 19:21 57.59051 12.22943 6629 ft 229 kts 190°
2026-05-04 19:21 57.57396 12.22774 7575 ft 246 kts 190°
2026-05-04 19:22 57.55634 12.22663 8523 ft 264 kts 185°
2026-05-04 19:22 57.53738 12.23035 9414 ft 282 kts 179°
2026-05-04 19:22 57.51796 12.23568 10428 ft 288 kts 179°
2026-05-04 19:22 57.49757 12.24125 11072 ft 305 kts 179°
2026-05-04 19:23 57.47596 12.24713 11632 ft 321 kts 179°
2026-05-04 19:23 57.46092 12.25124 12177 ft 324 kts 179°
2026-05-04 19:23 57.43842 12.25741 13028 ft 329 kts 179°
2026-05-04 19:23 57.41594 12.26356 13843 ft 333 kts 179°
2026-05-04 19:24 57.39274 12.26986 14585 ft 334 kts 179°
2026-05-04 19:24 57.37073 12.27602 14953 ft 307 kts 179°
2026-05-04 19:24 57.35021 12.28173 15022 ft 291 kts 180°
2026-05-04 19:24 57.33028 12.28712 15029 ft 289 kts 180°
2026-05-04 19:25 57.31030 12.29242 15033 ft 293 kts 180°
2026-05-04 19:25 57.29005 12.29782 15912 ft 290 kts 180°
2026-05-04 19:25 57.26987 12.30317 16673 ft 296 kts 180°
2026-05-04 19:25 57.24928 12.30862 17451 ft 301 kts 180°
2026-05-04 19:26 57.22834 12.31418 18213 ft 306 kts 179°
2026-05-04 19:26 57.20711 12.31980 18750 ft 314 kts 179°
2026-05-04 19:26 57.18536 12.32552 18914 ft 320 kts 179°
2026-05-04 19:26 57.16370 12.33137 18925 ft 309 kts 179°
2026-05-04 19:27 57.14252 12.33706 18919 ft 308 kts 179°
2026-05-04 19:27 57.12111 12.34258 18923 ft 312 kts 180°
2026-05-04 19:27 57.09972 12.34793 18914 ft 308 kts 180°
2026-05-04 19:27 57.07844 12.35323 18910 ft 309 kts 180°
2026-05-04 19:28 57.05708 12.35850 18913 ft 314 kts 180°
2026-05-04 19:28 57.03457 12.36394 18923 ft 337 kts 179°
2026-05-04 19:28 57.01112 12.36969 18914 ft 337 kts 179°
2026-05-04 19:28 56.98814 12.37547 18908 ft 330 kts 179°
2026-05-04 19:29 56.96521 12.38116 18918 ft 335 kts 179°
2026-05-04 19:29 56.94208 12.38688 18917 ft 334 kts 179°
2026-05-04 19:29 56.91909 12.39259 18918 ft 333 kts 179°
2026-05-04 19:29 56.89611 12.39826 18921 ft 334 kts 179°
2026-05-04 19:30 56.87306 12.40394 18924 ft 333 kts 179°
2026-05-04 19:30 56.85009 12.40960 18927 ft 333 kts 179°
2026-05-04 19:30 56.82711 12.41524 18928 ft 334 kts 179°
2026-05-04 19:30 56.80434 12.42083 18931 ft 333 kts 179°
2026-05-04 19:31 56.78138 12.42646 18928 ft 333 kts 179°
2026-05-04 19:31 56.75840 12.43209 18929 ft 333 kts 179°
2026-05-04 19:31 56.73538 12.43771 18931 ft 333 kts 179°
2026-05-04 19:31 56.71357 12.44304 18929 ft 333 kts 179°
2026-05-04 19:32 56.69153 12.44841 18927 ft 333 kts 179°
2026-05-04 19:32 56.66849 12.45402 18930 ft 333 kts 179°
2026-05-04 19:32 56.64555 12.45960 18926 ft 333 kts 178°
2026-05-04 19:32 56.62280 12.46513 18930 ft 334 kts 178°
2026-05-04 19:33 56.59976 12.47072 18931 ft 333 kts 178°
2026-05-04 19:33 56.57675 12.47630 18930 ft 333 kts 178°
2026-05-04 19:33 56.55346 12.48190 18417 ft 342 kts 178°
2026-05-04 19:33 56.52971 12.48761 17776 ft 344 kts 178°
2026-05-04 19:34 56.50616 12.49333 17354 ft 337 kts 178°
2026-05-04 19:34 56.48305 12.49895 16926 ft 331 kts 178°
2026-05-04 19:34 56.46065 12.50438 16482 ft 327 kts 178°
2026-05-04 19:34 56.43827 12.50978 16069 ft 322 kts 178°
2026-05-04 19:35 56.41613 12.51511 15646 ft 318 kts 179°
2026-05-04 19:35 56.39429 12.52034 15227 ft 315 kts 179°
2026-05-04 19:35 56.37265 12.52552 14816 ft 311 kts 179°
2026-05-04 19:35 56.35132 12.53062 14396 ft 308 kts 179°
2026-05-04 19:36 56.33026 12.53565 14004 ft 301 kts 179°
2026-05-04 19:36 56.31011 12.54053 13597 ft 285 kts 179°
2026-05-04 19:36 56.29036 12.54521 13213 ft 286 kts 179°
2026-05-04 19:36 56.27078 12.54985 12839 ft 282 kts 179°
2026-05-04 19:37 56.25143 12.55443 12469 ft 279 kts 179°
2026-05-04 19:37 56.23251 12.55889 12109 ft 277 kts 179°
2026-05-04 19:37 56.21342 12.56339 11742 ft 276 kts 179°
2026-05-04 19:37 56.19437 12.56789 11377 ft 275 kts 178°
2026-05-04 19:38 56.17550 12.57195 11003 ft 270 kts 185°
2026-05-04 19:38 56.15735 12.56768 10784 ft 260 kts 198°
2026-05-04 19:38 56.13974 12.56004 10615 ft 262 kts 200°
2026-05-04 19:38 56.12213 12.55169 10423 ft 259 kts 204°
2026-05-04 19:39 56.10775 12.53431 10272 ft 248 kts 229°
2026-05-04 19:39 56.09573 12.51209 10107 ft 248 kts 230°
2026-05-04 19:39 56.08380 12.48975 9960 ft 247 kts 230°
2026-05-04 19:39 56.07190 12.46746 9810 ft 247 kts 230°
2026-05-04 19:40 56.05999 12.44513 9650 ft 247 kts 230°
2026-05-04 19:40 56.04816 12.42294 9505 ft 247 kts 230°
2026-05-04 19:40 56.03633 12.40072 9361 ft 246 kts 230°
2026-05-04 19:40 56.02453 12.37852 9214 ft 246 kts 230°
2026-05-04 19:41 56.01282 12.35651 9180 ft 243 kts 230°
2026-05-04 19:41 56.00113 12.33451 9182 ft 246 kts 230°
2026-05-04 19:41 55.98929 12.31214 9066 ft 248 kts 230°
2026-05-04 19:41 55.97766 12.29023 8915 ft 245 kts 230°
2026-05-04 19:42 55.96596 12.26815 8751 ft 244 kts 230°
2026-05-04 19:42 55.95429 12.24606 8598 ft 244 kts 230°
2026-05-04 19:42 55.94202 12.22538 8423 ft 247 kts 214°
2026-05-04 19:42 55.92512 12.21832 8296 ft 258 kts 182°
2026-05-04 19:43 55.90713 12.22062 8149 ft 259 kts 180°
2026-05-04 19:43 55.88915 12.22332 7991 ft 259 kts 180°
2026-05-04 19:43 55.87125 12.22600 7839 ft 258 kts 180°
2026-05-04 19:43 55.85338 12.22868 7675 ft 257 kts 180°
2026-05-04 19:44 55.83553 12.23134 7534 ft 257 kts 180°
2026-05-04 19:44 55.81772 12.23397 7385 ft 256 kts 180°
2026-05-04 19:44 55.79997 12.23654 7234 ft 256 kts 180°
2026-05-04 19:44 55.78225 12.23908 7091 ft 255 kts 180°
2026-05-04 19:45 55.76459 12.24158 6938 ft 254 kts 180°
2026-05-04 19:45 55.74718 12.24404 6795 ft 254 kts 180°
2026-05-04 19:45 55.72954 12.24674 6635 ft 254 kts 176°
2026-05-04 19:45 55.71353 12.26067 6495 ft 266 kts 139°
2026-05-04 19:46 55.70443 12.28908 6364 ft 270 kts 105°
2026-05-04 19:46 55.70326 12.32230 6219 ft 271 kts 87°
2026-05-04 19:46 55.70441 12.35566 6063 ft 270 kts 86°
2026-05-04 19:46 55.70570 12.38856 5893 ft 262 kts 85°
2026-05-04 19:47 55.70696 12.42042 5735 ft 257 kts 85°
2026-05-04 19:47 55.70819 12.45203 5584 ft 257 kts 85°
2026-05-04 19:47 55.70943 12.48363 5435 ft 255 kts 84°
2026-05-04 19:47 55.71347 12.51238 5294 ft 253 kts 68°
2026-05-04 19:48 55.72030 12.54113 5147 ft 252 kts 63°
2026-05-04 19:48 55.72781 12.56909 5094 ft 253 kts 61°
2026-05-04 19:48 55.73586 12.59685 4992 ft 251 kts 60°
2026-05-04 19:48 55.74384 12.62430 4973 ft 251 kts 60°
2026-05-04 19:49 55.75186 12.65193 4896 ft 253 kts 60°
2026-05-04 19:49 55.75989 12.67951 4762 ft 250 kts 60°
2026-05-04 19:49 55.76787 12.70698 4640 ft 250 kts 60°
2026-05-04 19:49 55.77583 12.73431 4540 ft 247 kts 60°
2026-05-04 19:50 55.78373 12.76152 4421 ft 249 kts 60°
2026-05-04 19:50 55.79151 12.78842 4277 ft 240 kts 60°
2026-05-04 19:50 55.79896 12.81424 4161 ft 229 kts 60°
2026-05-04 19:50 55.80612 12.83911 4045 ft 223 kts 58°
2026-05-04 19:51 55.81604 12.85978 4005 ft 219 kts 41°
2026-05-04 19:51 55.82689 12.87848 3993 ft 221 kts 40°
2026-05-04 19:51 55.83798 12.89755 3889 ft 222 kts 40°
2026-05-04 19:51 55.84901 12.91647 3730 ft 219 kts 40°
2026-05-04 19:52 55.85771 12.93864 3564 ft 223 kts 71°
2026-05-04 19:52 55.85809 12.96584 3422 ft 223 kts 107°
2026-05-04 19:52 55.84990 12.98855 3274 ft 219 kts 143°
2026-05-04 19:52 55.83609 12.99707 3126 ft 210 kts 187°
2026-05-04 19:53 55.82316 12.98743 3004 ft 201 kts 221°
2026-05-04 19:53 55.81265 12.97094 2846 ft 201 kts 226°
2026-05-04 19:53 55.80245 12.95366 2688 ft 202 kts 227°
2026-05-04 19:53 55.79227 12.93660 2548 ft 201 kts 226°
2026-05-04 19:54 55.78216 12.91988 2489 ft 200 kts 226°
2026-05-04 19:54 55.77193 12.90318 2488 ft 201 kts 226°
2026-05-04 19:54 55.76157 12.88632 2489 ft 202 kts 226°
2026-05-04 19:54 55.75120 12.86955 2491 ft 202 kts 225°
2026-05-04 19:55 55.74078 12.85272 2498 ft 203 kts 225°
2026-05-04 19:55 55.73041 12.83608 2491 ft 201 kts 225°
2026-05-04 19:55 55.71994 12.81927 2496 ft 203 kts 225°
2026-05-04 19:55 55.70938 12.80238 2340 ft 206 kts 225°
2026-05-04 19:56 55.69872 12.78540 2058 ft 205 kts 225°
2026-05-04 19:56 55.68894 12.76741 1783 ft 202 kts 230°
2026-05-04 19:56 55.67888 12.75008 1490 ft 201 kts 225°
2026-05-04 19:56 55.66836 12.73410 1230 ft 197 kts 223°
2026-05-04 19:57 55.65822 12.71854 953 ft 191 kts 224°
2026-05-04 19:57 55.64862 12.70351 663 ft 177 kts 223°
2026-05-04 19:57 55.63976 12.68986 406 ft 161 kts 224°
2026-05-04 19:57 55.63189 12.67765 214 ft 142 kts 224°
2026-05-04 19:58 55.62446 12.66609 56 ft 143 kts 224°
2026-05-04 19:58 55.61860 12.65677 24 ft 66 kts 222°
2026-05-04 19:58 55.61608 12.65267 18 ft 21 kts 248°
2026-05-04 19:58 55.61611 12.65070 21 ft 18 kts 291°
2026-05-04 19:59 55.61682 12.64886 19 ft 10 kts 323°
2026-05-04 19:59 55.61717 12.64833 21 ft 0 kts 322°
2026-05-04 20:00 55.61720 12.64829 21 ft 3 kts 322°
2026-05-04 20:00 55.61772 12.64792 21 ft 14 kts 346°
2026-05-04 20:00 55.61886 12.64815 21 ft 20 kts 25°
2026-05-04 20:01 55.62011 12.64930 23 ft 19 kts
2026-05-04 20:01 55.62045 12.64927 23 ft 0 kts 324°
2026-05-04 20:01 55.62047 12.64919 23 ft 4 kts 302°
2026-05-04 20:02 55.62091 12.64795 25 ft 14 kts 302°
2026-05-04 20:02 55.62095 12.64785 24 ft 0 kts 302°
2026-05-04 20:03 55.62101 12.64768 23 ft 6 kts 302°
2026-05-04 20:03 55.62149 12.64634 25 ft 17 kts 302°
2026-05-04 20:03 55.62236 12.64400 19 ft 29 kts 303°
2026-05-04 20:04 55.62365 12.64055 19 ft 36 kts 302°
2026-05-04 20:04 55.62491 12.63804 22 ft 19 kts 335°
2026-05-04 20:04 55.62597 12.63755 24 ft 8 kts
2026-05-04 20:04 55.62627 12.63758 24 ft 0 kts
2026-05-04 20:05 55.62628 12.63759 24 ft 0 kts
2026-05-04 20:05 55.62631 12.63762 25 ft 1 kts 31°
2026-05-04 20:05 55.62659 12.63806 26 ft 10 kts 43°
2026-05-04 20:05 55.62703 12.63935 27 ft 13 kts 71°
2026-05-04 20:06 55.62718 12.64002 26 ft 0 kts 58°
2026-05-04 20:06 55.62727 12.64022 27 ft 5 kts 45°
2026-05-04 20:06 55.62740 12.64038 27 ft 0 kts 36°